Weather History for KORE - March, 2014

Change the Weather History Date:

Tuesday, March 25, 2014

  Actual Average Record
Temperature  
Mean Temperature 22 °F -  
Max Temperature 35 °F 44 °F 55 °F (2003)
Min Temperature 10 °F 24 °F 10 °F (2014)
Degree Days  
Heating Degree Days 42    
Moisture  
Dew Point 10 °F    
Average Humidity 58    
Maximum Humidity 88    
Minimum Humidity 34    
Precipitation  
Precipitation 0.00 in - - ()
Sea Level Pressure  
Sea Level Pressure 30.06 in    
Wind  
Wind Speed 3 mph (SSW)    
Max Wind Speed 15 mph    
Max Gust Speed 26 mph    
Visibility 10 miles    
Events      
Averages and records for this station are not official NWS values.
T = Trace of Precipitation, MM = Missing Value Source: NWS Daily Summary

Daily Weather History Graph

Daily Weather History Graph

Search for Another Location

Airport or City:

Trip Planner

Search our weather history database for the weather conditions in past years. The results will help you decide how hot, cold, wet, or windy it might be!

Date:

Astronomy

Mar. 25, 2014 Rise Set
Actual Time 6:43 AM EDT 7:07 PM EDT
Civil Twilight 6:15 AM EDT 7:35 PM EDT
Nautical Twilight 5:42 AM EDT 8:08 PM EDT
Astronomical Twilight 5:08 AM EDT 8:42 PM EDT
Moon 3:09 AM EDT (3/25) 1:28 PM EDT (3/25)
Length of Visible Light 13h 19m
Length of Day
12h 23m
Waning Crescent, 32% of the Moon is Illuminated
Mar 25
Waning Crescent
Mar 30
New
Apr 7
First Quarter
Apr 15
Full
Apr 22
Last Quarter

Hourly Weather History & Observations

Time (EDT) Temp. Windchill Dew Point Humidity Pressure Visibility Wind Dir Wind Speed Gust Speed Precip Events Conditions
12:52 AM 19.0 °F - 6.1 °F 57% 30.14 in 10.0 mi Calm Calm - N/A   Clear
1:52 AM 16.0 °F - 7.0 °F 68% 30.14 in 10.0 mi Calm Calm - N/A   Clear
2:52 AM 14.0 °F - 8.1 °F 77% 30.13 in 10.0 mi Calm Calm - N/A   Clear
3:52 AM 12.9 °F - 8.1 °F 81% 30.12 in 10.0 mi Calm Calm - N/A   Clear
4:52 AM 10.9 °F - 8.1 °F 88% 30.12 in 10.0 mi Calm Calm - N/A   Clear
5:52 AM 10.0 °F - 6.1 °F 84% 30.13 in 10.0 mi Calm Calm - N/A   Clear
6:52 AM 10.0 °F - 6.1 °F 84% 30.14 in 10.0 mi Calm Calm - N/A   Clear
7:52 AM 14.0 °F - 9.0 °F 80% 30.15 in 10.0 mi Calm Calm - N/A   Mostly Cloudy
8:52 AM 18.0 °F - 9.0 °F 68% 30.13 in 10.0 mi Calm Calm - N/A   Overcast
9:52 AM 23.0 °F - 10.0 °F 58% 30.12 in 10.0 mi Calm Calm - N/A   Overcast
10:52 AM 26.1 °F 15.6 °F 5.0 °F 41% 30.11 in 10.0 mi South 11.5 mph - N/A   Mostly Cloudy
11:52 AM 28.9 °F 19.8 °F 6.1 °F 38% 30.08 in 10.0 mi SSW 10.4 mph 18.4 mph N/A   Partly Cloudy
12:52 PM 30.0 °F 19.1 °F 7.0 °F 38% 30.08 in 10.0 mi SSW 15.0 mph - N/A   Scattered Clouds
1:52 PM 33.1 °F 25.5 °F 8.1 °F 35% 30.06 in 10.0 mi WSW 9.2 mph 26.5 mph N/A   Overcast
2:52 PM 33.1 °F 23.0 °F 10.0 °F 38% 30.03 in 10.0 mi SSW 15.0 mph 23.0 mph N/A   Overcast
3:52 PM 35.1 °F 27.4 °F 9.0 °F 34% 30.01 in 10.0 mi SW 10.4 mph 16.1 mph N/A   Overcast
4:52 PM 34.0 °F 26.0 °F 9.0 °F 35% 29.99 in 10.0 mi SSW 10.4 mph - N/A   Mostly Cloudy
5:52 PM 33.1 °F 25.5 °F 10.0 °F 38% 29.99 in 10.0 mi South 9.2 mph - N/A   Mostly Cloudy
6:52 PM 32.0 °F 27.5 °F 10.9 °F 42% 29.99 in 10.0 mi SSE 4.6 mph - N/A   Scattered Clouds
7:52 PM 28.9 °F - 15.1 °F 56% 29.96 in 10.0 mi Calm Calm - N/A   Clear
8:52 PM 28.0 °F - 17.1 °F 63% 29.97 in 10.0 mi Calm Calm - N/A   Clear
9:52 PM 28.0 °F - 18.0 °F 66% 29.98 in 10.0 mi Calm Calm - N/A   Scattered Clouds
10:52 PM 28.0 °F - 18.0 °F 66% 29.98 in 10.0 mi Calm Calm - N/A   Clear
11:52 PM 27.0 °F 23.0 °F 18.0 °F 69% 29.91 in 10.0 mi North 3.5 mph - N/A   Mostly Cloudy